Flag for Germany Weather past 2 weeks in Koblenz, Rhineland-Palatinate, Germany

Now
36 °F

Chilly.


Feels Like: 31 °F
Forecast: 50 / 53 °F
Wind: 6 mph from Southwest

Location: Buechel

Current Time: Mar 28, 2015 at 6:52:50 AM

Latest Report: Mar 28, 2015 at 5:20 AM


Visibility: N/A

Pressure: 30.15 "Hg

Humidity: 81%

Dew point: 30 °F

Location of KoblenzLocation

Historic Weather in Koblenz — Graph

°F

Koblenz temperature yesterday

Maximum temperature yesterday: 45 °F (at 3:20 PM)
Minimum temperature yesterday: 36 °F (at 3:20 AM)
Average temperature yesterday: 39 °F

Past Weeks' High & Low Weather Summary

 TemperatureHumidityPressure
High61 °F (Mar 18, 2:20 PM)100% (Mar 14, 9:20 PM)30.30 "Hg (Mar 14, 9:20 PM)
Low27 °F (Mar 23, 4:20 AM)39% (Mar 18, 2:20 PM)29.62 "Hg (Mar 25, 3:20 AM)
Average40 °F80%30.07 "Hg
* Reported Mar 13 5:20 AM — Mar 28 5:20 AM, Koblenz, Weather by CustomWeather, © 2015

Note: Actual official high and low records may vary slightly from our data, if they occured in-between our weather recording intervals... More about our weather records

Advertising

Koblenz weather history for previous 24 hours

 ConditionsComfort  
Time TempWeatherWind HumidityBarometerVisibility
5:20 AM
Sat, Mar 28
36 °FChilly.6 mph81%30.15 "HgN/A
4:20 AM36 °FChilly.5 mph81%30.18 "HgN/A
3:20 AM36 °FChilly.6 mph81%30.18 "HgN/A
2:20 AM36 °FChilly.5 mph81%30.18 "HgN/A
1:20 AM37 °FChilly.3 mph75%30.21 "HgN/A
12:20 AM37 °FChilly.3 mph75%30.21 "HgN/A
11:20 PM
Fri, Mar 27
37 °FChilly.5 mph75%30.18 "HgN/A
10:20 PM37 °FChilly.6 mph75%30.18 "HgN/A
9:20 PM39 °FChilly.6 mph70%30.18 "HgN/A
8:20 PM41 °FQuite cool.5 mph66%30.18 "HgN/A
7:20 PM41 °FQuite cool.6 mph66%30.15 "HgN/A
6:20 PM43 °FQuite cool.8 mph61%30.12 "HgN/A
5:20 PM43 °FQuite cool.9 mph57%30.12 "HgN/A
4:20 PM45 °FQuite cool.7 mph57%30.09 "HgN/A
3:20 PM45 °FQuite cool.12 mph57%30.09 "HgN/A
2:20 PM43 °FQuite cool.9 mph66%30.07 "HgN/A
1:20 PM43 °FQuite cool.12 mph66%30.07 "HgN/A
12:45 PM41 °FBroken clouds.10 mph76%30.07 "HgN/A
12:20 PM41 °FBroken clouds.12 mph76%30.07 "HgN/A
11:20 AM39 °FBroken clouds.12 mph81%30.04 "HgN/A
10:20 AM37 °FBroken clouds.9 mph87%30.01 "HgN/A
9:20 AM37 °FBroken clouds.10 mph87%30.01 "Hg5 mi
8:20 AM36 °FFog.10 mph93%29.98 "Hg3 mi
7:20 AM36 °FFog.7 mph93%29.95 "Hg3 mi
6:20 AM36 °FFog.8 mph93%29.92 "Hg3 mi
Weather by CustomWeather, © 2015

See weather overviewHow to use our weather pages